Time,TemperatureF,DewpointF,PressureIn,WindDirection,WindDirectionDegrees,WindSpeedMPH,WindSpeedGustMPH,Humidity,HourlyPrecipIn,Conditions,Clouds,dailyrainin,SoftwareType,DateUTC
2013-01-13 07:57:00,26.9,24.6,30.01,NW,311,0.0,0.0,91,0.00,,,0.00,Wunderground v.1.15,2013-01-13 13:57:00,
2013-01-13 07:58:00,27.0,24.7,30.01,NW,311,0.0,0.0,91,0.00,,,0.00,Wunderground v.1.15,2013-01-13 13:58:00,
2013-01-13 08:04:00,27.0,24.7,30.02,NW,311,0.0,0.0,91,0.00,,,0.00,Wunderground v.1.15,2013-01-13 14:04:00,
2013-01-13 08:10:00,27.0,24.7,30.02,NW,309,0.0,0.0,91,0.00,,,0.00,Wunderground v.1.15,2013-01-13 14:10:00,
2013-01-13 08:15:00,27.0,24.7,30.01,NW,305,2.0,5.0,91,0.00,,,0.00,Wunderground v.1.15,2013-01-13 14:15:00,
2013-01-13 08:21:00,26.8,24.3,30.02,NW,314,4.0,5.0,90,0.00,,,0.00,Wunderground v.1.15,2013-01-13 14:21:00,
2013-01-13 08:27:00,26.7,24.2,30.03,NW,314,5.0,8.0,90,0.00,,,0.00,Wunderground v.1.15,2013-01-13 14:27:00,
2013-01-13 08:32:00,26.7,24.2,30.00,NW,314,4.0,5.0,90,0.00,,,0.00,Wunderground v.1.15,2013-01-13 14:32:00,
2013-01-13 08:38:00,26.6,24.1,30.02,NW,314,4.0,7.0,90,0.00,,,0.00,Wunderground v.1.15,2013-01-13 14:38:00,
2013-01-13 08:43:00,26.6,24.3,30.01,NW,314,5.0,5.0,91,0.00,,,0.00,Wunderground v.1.15,2013-01-13 14:43:00,
2013-01-13 08:49:00,26.4,23.9,29.93,NW,314,6.0,11.0,90,0.00,,,0.00,Wunderground v.1.15,2013-01-13 14:49:00,
2013-01-13 08:55:00,26.3,23.8,29.96,NW,314,6.0,6.0,90,0.00,,,0.00,Wunderground v.1.15,2013-01-13 14:55:00,
2013-01-13 09:00:00,26.5,24.2,30.04,NW,314,5.0,6.0,91,0.00,,,0.00,Wunderground v.1.15,2013-01-13 15:00:00,
2013-01-13 09:06:00,26.9,24.9,30.07,NW,314,5.0,6.0,92,0.00,,,0.00,Wunderground v.1.15,2013-01-13 15:06:00,
2013-01-13 09:12:00,27.0,24.7,30.06,NW,314,4.0,6.0,91,0.00,,,0.00,Wunderground v.1.15,2013-01-13 15:12:00,
2013-01-13 09:17:00,26.7,24.2,30.05,NW,314,5.0,6.0,90,0.00,,,0.00,Wunderground v.1.15,2013-01-13 15:17:00,
2013-01-13 09:23:00,26.5,24.0,30.03,NW,314,5.0,5.0,90,0.00,,,0.00,Wunderground v.1.15,2013-01-13 15:23:00,
2013-01-13 09:29:00,26.4,23.9,30.05,NW,314,5.0,7.0,90,0.00,,,0.00,Wunderground v.1.15,2013-01-13 15:29:00,
2013-01-13 09:35:00,26.5,24.2,30.05,NW,314,5.0,6.0,91,0.00,,,0.00,Wunderground v.1.15,2013-01-13 15:35:00,
2013-01-13 09:41:00,26.5,24.0,30.04,NW,314,4.0,5.0,90,0.00,,,0.00,Wunderground v.1.15,2013-01-13 15:41:00,
2013-01-13 09:46:00,26.4,23.9,30.04,NW,314,4.0,6.0,90,0.00,,,0.00,Wunderground v.1.15,2013-01-13 15:46:00,
2013-01-13 09:52:00,26.4,23.9,30.02,NW,314,4.0,4.0,90,0.00,,,0.00,Wunderground v.1.15,2013-01-13 15:52:00,
2013-01-13 09:57:00,26.4,24.1,30.02,NW,314,4.0,5.0,91,0.00,,,0.00,Wunderground v.1.15,2013-01-13 15:57:00,
2013-01-13 10:04:00,26.3,23.8,30.03,NW,314,4.0,6.0,90,0.00,,,0.00,Wunderground v.1.15,2013-01-13 16:04:00,
2013-01-13 10:09:00,26.3,23.5,30.03,SSE,157,4.0,6.0,89,0.00,,,0.00,Wunderground v.1.15,2013-01-13 16:09:00,
2013-01-13 10:15:00,26.3,23.8,30.01,WNW,302,3.0,6.0,90,0.00,,,0.00,Wunderground v.1.15,2013-01-13 16:15:00,
2013-01-13 10:21:00,26.4,24.1,30.03,WNW,302,4.0,5.0,91,0.00,,,0.00,Wunderground v.1.15,2013-01-13 16:21:00,
2013-01-13 10:26:00,26.4,24.1,30.04,WNW,302,5.0,6.0,91,0.00,,,0.00,Wunderground v.1.15,2013-01-13 16:26:00,
2013-01-13 10:32:00,26.3,23.8,30.04,WNW,302,5.0,6.0,90,0.00,,,0.00,Wunderground v.1.15,2013-01-13 16:32:00,
2013-01-13 10:38:00,26.2,23.7,30.03,WNW,302,6.0,8.0,90,0.00,,,0.00,Wunderground v.1.15,2013-01-13 16:38:00,
2013-01-13 10:43:00,26.0,23.5,30.02,WNW,302,6.0,8.0,90,0.00,,,0.00,Wunderground v.1.15,2013-01-13 16:43:00,
2013-01-13 10:49:00,25.9,23.4,30.02,WNW,302,7.0,9.0,90,0.00,,,0.00,Wunderground v.1.15,2013-01-13 16:49:00,
2013-01-13 10:55:00,25.6,23.1,30.01,WNW,302,6.0,7.0,90,0.00,,,0.00,Wunderground v.1.15,2013-01-13 16:55:00,
2013-01-13 11:01:00,25.4,22.9,30.01,WNW,302,6.0,6.0,90,0.00,,,0.00,Wunderground v.1.15,2013-01-13 17:01:00,
2013-01-13 11:07:00,25.3,22.8,30.01,WNW,302,9.0,9.0,90,0.00,,,0.00,Wunderground v.1.15,2013-01-13 17:07:00,
2013-01-13 11:12:00,25.1,22.6,30.00,WNW,302,6.0,6.0,90,0.00,,,0.00,Wunderground v.1.15,2013-01-13 17:12:00,
2013-01-13 11:17:00,25.1,22.6,30.00,WNW,302,5.0,7.0,90,0.00,,,0.00,Wunderground v.1.15,2013-01-13 17:17:00,
2013-01-13 11:23:00,25.2,22.9,29.98,WNW,302,5.0,6.0,91,0.00,,,0.00,Wunderground v.1.15,2013-01-13 17:23:00,
2013-01-13 11:29:00,25.0,22.7,29.98,WNW,302,5.0,7.0,91,0.00,,,0.00,Wunderground v.1.15,2013-01-13 17:29:00,
2013-01-13 11:34:00,24.9,22.6,29.99,WNW,302,5.0,6.0,91,0.00,,,0.00,Wunderground v.1.15,2013-01-13 17:34:00,
2013-01-13 11:40:00,24.8,22.5,30.00,WNW,302,5.0,6.0,91,0.00,,,0.00,Wunderground v.1.15,2013-01-13 17:40:00,
2013-01-13 11:45:00,24.7,22.7,30.01,WNW,302,6.0,8.0,92,0.00,,,0.00,Wunderground v.1.15,2013-01-13 17:45:00,
2013-01-13 11:51:00,24.7,22.7,30.03,WNW,302,6.0,6.0,92,0.00,,,0.00,Wunderground v.1.15,2013-01-13 17:51:00,
2013-01-13 11:57:00,24.8,22.8,30.04,WNW,302,5.0,6.0,92,0.00,,,0.00,Wunderground v.1.15,2013-01-13 17:57:00,
2013-01-13 12:02:00,24.7,22.7,30.03,WNW,302,5.0,5.0,92,0.00,,,0.00,Wunderground v.1.15,2013-01-13 18:02:00,
2013-01-13 12:07:00,24.4,22.2,30.04,WNW,302,5.0,6.0,91,0.00,,,0.00,Wunderground v.1.15,2013-01-13 18:07:00,
2013-01-13 12:13:00,24.4,22.2,30.05,WNW,302,6.0,6.0,91,0.00,,,0.00,Wunderground v.1.15,2013-01-13 18:13:00,
2013-01-13 12:19:00,24.3,22.1,30.06,WNW,302,6.0,6.0,91,0.00,,,0.00,Wunderground v.1.15,2013-01-13 18:19:00,
2013-01-13 12:25:00,24.2,22.0,30.05,WNW,302,5.0,6.0,91,0.00,,,0.00,Wunderground v.1.15,2013-01-13 18:25:00,
2013-01-13 12:30:00,24.1,21.9,30.06,WNW,302,5.0,5.0,91,0.00,,,0.00,Wunderground v.1.15,2013-01-13 18:30:00,
2013-01-13 12:36:00,24.3,22.3,30.06,WNW,302,4.0,5.0,92,0.00,,,0.00,Wunderground v.1.15,2013-01-13 18:36:00,
2013-01-13 12:42:00,24.4,22.2,30.06,WNW,302,4.0,6.0,91,0.00,,,0.00,Wunderground v.1.15,2013-01-13 18:42:00,
2013-01-13 12:48:00,24.4,21.9,30.05,WNW,302,5.0,7.0,90,0.00,,,0.00,Wunderground v.1.15,2013-01-13 18:48:00,
2013-01-13 12:53:00,24.4,21.6,30.04,WNW,302,6.0,10.0,89,0.00,,,0.00,Wunderground v.1.15,2013-01-13 18:53:00,
2013-01-13 12:59:00,24.3,21.3,30.04,WNW,302,7.0,10.0,88,0.00,,,0.00,Wunderground v.1.15,2013-01-13 18:59:00,
2013-01-13 13:05:00,24.2,21.2,30.02,WNW,302,6.0,7.0,88,0.00,,,0.00,Wunderground v.1.15,2013-01-13 19:05:00,
2013-01-13 13:11:00,24.2,21.2,30.02,WNW,302,6.0,6.0,88,0.00,,,0.00,Wunderground v.1.15,2013-01-13 19:11:00,
2013-01-13 13:16:00,24.0,21.0,30.01,WNW,302,6.0,6.0,88,0.00,,,0.00,Wunderground v.1.15,2013-01-13 19:16:00,
2013-01-13 13:22:00,23.9,20.9,30.01,WNW,302,6.0,6.0,88,0.00,,,0.00,Wunderground v.1.15,2013-01-13 19:22:00,
2013-01-13 13:28:00,23.9,21.1,30.00,WNW,302,5.0,6.0,89,0.00,,,0.00,Wunderground v.1.15,2013-01-13 19:28:00,
2013-01-13 13:33:00,23.7,20.7,30.00,WNW,302,6.0,7.0,88,0.00,,,0.00,Wunderground v.1.15,2013-01-13 19:33:00,
2013-01-13 13:39:00,23.6,20.6,30.01,WNW,302,7.0,10.0,88,0.00,,,0.00,Wunderground v.1.15,2013-01-13 19:39:00,
2013-01-13 13:45:00,23.6,20.6,30.00,WNW,302,6.0,8.0,88,0.00,,,0.00,Wunderground v.1.15,2013-01-13 19:45:00,
2013-01-13 13:51:00,23.4,20.4,30.00,WNW,302,7.0,8.0,88,0.00,,,0.00,Wunderground v.1.15,2013-01-13 19:51:00,
2013-01-13 13:57:00,23.3,20.0,30.02,WNW,302,7.0,12.0,87,0.00,,,0.00,Wunderground v.1.15,2013-01-13 19:57:00,
2013-01-13 14:02:00,23.4,20.4,30.04,WNW,302,6.0,7.0,88,0.00,,,0.00,Wunderground v.1.15,2013-01-13 20:02:00,
2013-01-13 14:08:00,23.3,20.3,30.04,WNW,302,6.0,7.0,88,0.00,,,0.00,Wunderground v.1.15,2013-01-13 20:08:00,
2013-01-13 14:14:00,23.1,19.8,30.04,WNW,302,6.0,9.0,87,0.00,,,0.00,Wunderground v.1.15,2013-01-13 20:14:00,
2013-01-13 14:19:00,23.0,19.7,30.04,WNW,302,6.0,9.0,87,0.00,,,0.00,Wunderground v.1.15,2013-01-13 20:19:00,
2013-01-13 14:25:00,22.8,19.5,30.05,WNW,302,5.0,8.0,87,0.00,,,0.00,Wunderground v.1.15,2013-01-13 20:25:00,
2013-01-13 14:31:00,22.6,19.0,30.05,WNW,302,6.0,8.0,86,0.00,,,0.00,Wunderground v.1.15,2013-01-13 20:31:00,
2013-01-13 14:37:00,22.5,18.9,30.05,WNW,302,6.0,8.0,86,0.00,,,0.00,Wunderground v.1.15,2013-01-13 20:37:00,
2013-01-13 14:43:00,22.5,19.2,30.06,WNW,302,6.0,6.0,87,0.00,,,0.00,Wunderground v.1.15,2013-01-13 20:43:00,
2013-01-13 14:48:00,22.5,19.2,30.06,WNW,302,6.0,6.0,87,0.00,,,0.00,Wunderground v.1.15,2013-01-13 20:48:00,
2013-01-13 14:54:00,22.3,18.7,30.07,WNW,302,6.0,9.0,86,0.00,,,0.00,Wunderground v.1.15,2013-01-13 20:54:00,
2013-01-13 15:00:00,22.3,18.7,30.07,WNW,302,6.0,7.0,86,0.00,,,0.00,Wunderground v.1.15,2013-01-13 21:00:00,
2013-01-13 15:06:00,22.2,18.4,30.08,WNW,302,6.0,7.0,85,0.00,,,0.00,Wunderground v.1.15,2013-01-13 21:06:00,
2013-01-13 15:12:00,22.0,18.2,30.08,WNW,302,6.0,8.0,85,0.00,,,0.00,Wunderground v.1.15,2013-01-13 21:12:00,
2013-01-13 15:17:00,21.9,18.1,30.07,WNW,302,6.0,8.0,85,0.00,,,0.00,Wunderground v.1.15,2013-01-13 21:17:00,
2013-01-13 15:23:00,21.9,18.1,30.08,WNW,302,6.0,10.0,85,0.00,,,0.00,Wunderground v.1.15,2013-01-13 21:23:00,
2013-01-13 15:29:00,21.8,18.0,30.08,WNW,302,6.0,10.0,85,0.00,,,0.00,Wunderground v.1.15,2013-01-13 21:29:00,
2013-01-13 15:35:00,22.0,18.5,30.09,WNW,302,5.0,7.0,86,0.00,,,0.00,Wunderground v.1.15,2013-01-13 21:35:00,
2013-01-13 15:40:00,21.8,18.0,30.08,WNW,302,5.0,6.0,85,0.00,,,0.00,Wunderground v.1.15,2013-01-13 21:40:00,
2013-01-13 15:46:00,21.7,17.9,30.09,WNW,302,5.0,7.0,85,0.00,,,0.00,Wunderground v.1.15,2013-01-13 21:46:00,
2013-01-13 15:51:00,21.6,17.8,30.09,WNW,302,5.0,7.0,85,0.00,,,0.00,Wunderground v.1.15,2013-01-13 21:51:00,
2013-01-13 15:56:00,21.6,18.1,30.09,WNW,302,5.0,7.0,86,0.00,,,0.00,Wunderground v.1.15,2013-01-13 21:56:00,
2013-01-13 16:02:00,21.7,18.2,30.10,WNW,302,5.0,6.0,86,0.00,,,0.00,Wunderground v.1.15,2013-01-13 22:02:00,
2013-01-13 16:08:00,21.5,17.7,30.11,WNW,302,5.0,8.0,85,0.00,,,0.00,Wunderground v.1.15,2013-01-13 22:08:00,
2013-01-13 16:13:00,21.5,17.7,30.11,WNW,302,5.0,7.0,85,0.00,,,0.00,Wunderground v.1.15,2013-01-13 22:13:00,
2013-01-13 16:19:00,21.3,17.8,30.11,WNW,302,5.0,7.0,86,0.00,,,0.00,Wunderground v.1.15,2013-01-13 22:19:00,
2013-01-13 16:25:00,21.2,17.4,30.12,WNW,302,5.0,6.0,85,0.00,,,0.00,Wunderground v.1.15,2013-01-13 22:25:00,